Weather History for Dyersburg, TN

Change the Weather History Date:

Saturday, October 27, 2012

  Actual Average Record
Temperature  
Mean Temperature 47 °F -  
Max Temperature 55 °F 66 °F 80 °F (1999)
Min Temperature 39 °F 47 °F 35 °F (1997)
Degree Days  
Heating Degree Days 18    
Growing Degree Days 0 (Base 50)    
Moisture  
Dew Point 31 °F    
Average Humidity 54    
Maximum Humidity 65    
Minimum Humidity 38    
Precipitation  
Precipitation 0.00 in - - ()
Sea Level Pressure  
Sea Level Pressure 30.17 in    
Wind  
Wind Speed 12 mph (North)    
Max Wind Speed 18 mph    
Max Gust Speed 23 mph    
Visibility 10 miles    
Events      
Averages and records for this station are not official NWS values.
T = Trace of Precipitation, MM = Missing Value Source: NWS Daily Summary

Daily Weather History Graph

Daily Weather History Graph

Search for Another Location

Airport:

Trip Planner

Search our weather history database for the weather conditions in past years. The results will help you decide how hot, cold, wet, or windy it might be!

Date:

Astronomy

Oct. 27, 2012 Rise Set
Actual Time 7:15 AM CDT 6:06 PM CDT
Civil Twilight 6:49 AM CDT 6:32 PM CDT
Nautical Twilight 6:19 AM CDT 7:02 PM CDT
Astronomical Twilight 5:49 AM CDT 7:32 PM CDT
Moon 4:50 PM CDT (10/27) 5:13 AM CDT (10/27)
Length of Visible Light 11h 43m
Length of Day
10h 50m
Waxing Gibbous, 96% of the Moon is Illuminated
Oct 27
Waxing Gibbous
Oct 29
Full
Nov 6
Last Quarter
Nov 13
New
Nov 20
First Quarter

Hourly Weather History & Observations

Time (CDT) Temp. Windchill Dew Point Humidity Pressure Visibility Wind Dir Wind Speed Gust Speed Precip Events Conditions
12:15 AM 44.6 °F 38.8 °F 32.0 °F 61% 30.22 in 10.0 mi North 11.5 mph 17.3 mph N/A   Overcast
12:35 AM 44.6 °F 38.4 °F 32.0 °F 61% 30.22 in 10.0 mi North 12.7 mph - N/A   Overcast
1:35 AM 44.6 °F 37.8 °F 32.0 °F 61% 30.20 in 10.0 mi North 15.0 mph 20.7 mph N/A   Overcast
2:35 AM 44.6 °F 38.1 °F 30.2 °F 57% 30.20 in 10.0 mi North 13.8 mph - N/A   Overcast
2:55 AM 42.8 °F 36.2 °F 30.2 °F 61% 30.20 in 10.0 mi North 12.7 mph 19.6 mph N/A   Overcast
3:35 AM 42.8 °F 36.2 °F 30.2 °F 61% 30.19 in 10.0 mi North 12.7 mph 21.9 mph N/A   Overcast
3:55 AM 42.8 °F 37.0 °F 28.4 °F 57% 30.19 in 10.0 mi North 10.4 mph 18.4 mph N/A   Partly Cloudy
4:15 AM 41.0 °F 35.8 °F 28.4 °F 61% 30.19 in 10.0 mi North 8.1 mph - N/A   Clear
4:55 AM 39.2 °F 33.0 °F 28.4 °F 65% 30.17 in 10.0 mi North 9.2 mph - N/A   Clear
5:15 AM 39.2 °F 32.0 °F 28.4 °F 65% 30.18 in 10.0 mi North 11.5 mph - N/A   Clear
5:35 AM 39.2 °F 32.5 °F 28.4 °F 65% 30.18 in 10.0 mi North 10.4 mph - N/A   Clear
6:15 AM 39.2 °F 33.0 °F 28.4 °F 65% 30.19 in 10.0 mi North 9.2 mph - N/A   Clear
6:55 AM 39.2 °F 32.5 °F 28.4 °F 65% 30.19 in 10.0 mi North 10.4 mph - N/A   Clear
7:16 AM 39.2 °F 32.5 °F 28.4 °F 65% 30.20 in 10.0 mi North 10.4 mph - N/A   Clear
7:35 AM 39.2 °F 33.6 °F 28.4 °F 65% 30.20 in 10.0 mi North 8.1 mph - N/A   Clear
7:55 AM 39.2 °F 33.6 °F 28.4 °F 65% 30.20 in 10.0 mi North 8.1 mph - N/A   Clear
8:15 AM 39.2 °F 32.5 °F 28.4 °F 65% 30.20 in 10.0 mi North 10.4 mph - N/A   Clear
8:35 AM 41.0 °F 33.9 °F 28.4 °F 61% 30.20 in 10.0 mi North 12.7 mph - N/A   Clear
9:15 AM 42.8 °F 35.1 °F 30.2 °F 61% 30.21 in 10.0 mi North 16.1 mph - N/A   Clear
9:55 AM 44.6 °F 38.4 °F 30.2 °F 57% 30.21 in 10.0 mi North 12.7 mph 19.6 mph N/A   Clear
10:35 AM 46.4 °F 41.9 °F 33.8 °F 62% 30.21 in 10.0 mi North 9.2 mph 19.6 mph N/A   Clear
10:55 AM 48.2 °F - 32.0 °F 54% 30.20 in 10.0 mi North 15.0 mph - N/A   Clear
11:15 AM 48.2 °F - 33.8 °F 58% 30.20 in 10.0 mi North 17.3 mph - N/A   Clear
11:35 AM 50.0 °F - 33.8 °F 54% 30.19 in 10.0 mi North 16.1 mph 20.7 mph N/A   Clear
11:56 AM 51.8 °F - 33.8 °F 50% 30.19 in 10.0 mi North 16.1 mph 21.9 mph N/A   Clear
12:15 PM 51.8 °F - 33.8 °F 50% 30.18 in 10.0 mi North 13.8 mph - N/A   Clear
12:35 PM 51.8 °F - 33.8 °F 50% 30.17 in 10.0 mi North 10.4 mph 19.6 mph N/A   Clear
12:55 PM 51.8 °F - 33.8 °F 50% 30.15 in 10.0 mi NNW 13.8 mph 19.6 mph N/A   Clear
1:15 PM 53.6 °F - 33.8 °F 47% 30.14 in 10.0 mi North 11.5 mph 17.3 mph N/A   Clear
1:35 PM 53.6 °F - 33.8 °F 47% 30.14 in 10.0 mi NNW 10.4 mph - N/A   Clear
1:56 PM 53.6 °F - 33.8 °F 47% 30.14 in 10.0 mi NNE 16.1 mph 20.7 mph N/A   Clear
2:15 PM 53.6 °F - 33.8 °F 47% 30.13 in 10.0 mi North 12.7 mph 16.1 mph N/A   Clear
2:35 PM 53.6 °F - 33.8 °F 47% 30.12 in 10.0 mi North 13.8 mph 20.7 mph N/A   Clear
3:15 PM 55.4 °F - 33.8 °F 44% 30.11 in 10.0 mi North 8.1 mph 17.3 mph N/A   Clear
3:35 PM 55.4 °F - 32.0 °F 41% 30.12 in 10.0 mi NNW 18.4 mph - N/A   Clear
4:15 PM 55.4 °F - 30.2 °F 38% 30.12 in 10.0 mi North 17.3 mph 21.9 mph N/A   Clear
4:35 PM 55.4 °F - 30.2 °F 38% 30.12 in 10.0 mi North 11.5 mph 19.6 mph N/A   Clear
4:55 PM 53.6 °F - 30.2 °F 41% 30.12 in 10.0 mi North 16.1 mph 21.9 mph N/A   Clear
5:15 PM 53.6 °F - 30.2 °F 41% 30.12 in 10.0 mi North 12.7 mph 23.0 mph N/A   Clear
5:35 PM 53.6 °F - 30.2 °F 41% 30.13 in 10.0 mi North 12.7 mph 21.9 mph N/A   Clear
5:55 PM 51.8 °F - 30.2 °F 44% 30.13 in 10.0 mi North 11.5 mph - N/A   Clear
6:35 PM 50.0 °F - 28.4 °F 43% 30.13 in 10.0 mi North 8.1 mph - N/A   Clear
6:56 PM 48.2 °F - 30.2 °F 50% 30.13 in 10.0 mi North 9.2 mph - N/A   Clear
7:15 PM 48.2 °F - 30.2 °F 50% 30.14 in 10.0 mi North 9.2 mph - N/A   Clear
7:35 PM 48.2 °F - 30.2 °F 50% 30.14 in 10.0 mi North 9.2 mph - N/A   Clear
7:55 PM 48.2 °F - 30.2 °F 50% 30.14 in 10.0 mi North 10.4 mph - N/A   Clear
8:15 PM 48.2 °F - 30.2 °F 50% 30.14 in 10.0 mi North 10.4 mph - N/A   Clear
8:35 PM 46.4 °F 41.9 °F 30.2 °F 53% 30.14 in 10.0 mi North 9.2 mph - N/A   Clear
9:15 PM 46.4 °F 40.7 °F 30.2 °F 53% 30.15 in 10.0 mi North 12.7 mph - N/A   Clear
9:35 PM 44.6 °F 39.7 °F 30.2 °F 57% 30.15 in 10.0 mi North 9.2 mph - N/A   Clear
10:15 PM 44.6 °F 39.7 °F 30.2 °F 57% 30.16 in 10.0 mi North 9.2 mph - N/A   Clear
10:35 PM 44.6 °F 40.2 °F 30.2 °F 57% 30.16 in 10.0 mi North 8.1 mph - N/A   Clear
10:56 PM 44.6 °F 40.2 °F 30.2 °F 57% 30.16 in 10.0 mi North 8.1 mph - N/A   Clear
11:15 PM 44.6 °F 40.2 °F 30.2 °F 57% 30.16 in 10.0 mi NNW 8.1 mph - N/A   Clear
11:35 PM 44.6 °F 39.7 °F 30.2 °F 57% 30.16 in 10.0 mi NNW 9.2 mph - N/A   Clear